owner,sensor,date,latitude,longitude,vertical_datum,sea_water_practical_salinity,qcFlag 
DISL,ioos:station:DISL:MHPA:1,2011-03-01T00:00:00Z,30.6671,-87.9365,4.95,0.39,1111122 
DISL,ioos:station:DISL:MHPA:1,2011-03-01T00:30:00Z,30.6671,-87.9365,4.876,0.39,1111122 
DISL,ioos:station:DISL:MHPA:1,2011-03-01T01:00:00Z,30.6671,-87.9365,4.961,0.38,1111122 
DISL,ioos:station:DISL:MHPA:1,2011-03-01T01:30:00Z,30.6671,-87.9365,4.896,0.38,1111122 
DISL,ioos:station:DISL:MHPA:1,2011-03-01T02:00:00Z,30.6671,-87.9365,4.811,0.38,1111122 
DISL,ioos:station:DISL:MHPA:1,2011-03-01T02:30:00Z,30.6671,-87.9365,4.651,0.39,1111122 
DISL,ioos:station:DISL:MHPA:1,2011-03-01T03:00:00Z,30.6671,-87.9365,4.548,0.38,1111122 
DISL,ioos:station:DISL:MHPA:1,2011-03-01T03:30:00Z,30.6671,-87.9365,4.568,0.38,1111122 
DISL,ioos:station:DISL:MHPA:1,2011-03-01T04:00:00Z,30.6671,-87.9365,4.303,0.38,1111122 
DISL,ioos:station:DISL:MHPA:1,2011-03-01T04:30:00Z,30.6671,-87.9365,4.182,0.39,1111122 
DISL,ioos:station:DISL:MHPA:1,2011-03-01T05:00:00Z,30.6671,-87.9365,4.012,0.41,1111122 
DISL,ioos:station:DISL:MHPA:1,2011-03-01T05:30:00Z,30.6671,-87.9365,3.878,0.44,1111122 
DISL,ioos:station:DISL:MHPA:1,2011-03-01T06:00:00Z,30.6671,-87.9365,3.833,0.49,1111122 
DISL,ioos:station:DISL:MHPA:1,2011-03-01T06:30:00Z,30.6671,-87.9365,3.61,0.55,1111122 
DISL,ioos:station:DISL:MHPA:1,2011-03-01T07:00:00Z,30.6671,-87.9365,3.402,0.5,1111122 
DISL,ioos:station:DISL:MHPA:1,2011-03-01T07:30:00Z,30.6671,-87.9365,3.206,0.54,1111122 
DISL,ioos:station:DISL:MHPA:1,2011-03-01T08:00:00Z,30.6671,-87.9365,3.02,0.5,1111122 
DISL,ioos:station:DISL:MHPA:1,2011-03-01T08:30:00Z,30.6671,-87.9365,2.831,0.5,1111122 
DISL,ioos:station:DISL:MHPA:1,2011-03-01T09:00:00Z,30.6671,-87.9365,2.664,0.51,1111122 
DISL,ioos:station:DISL:MHPA:1,2011-03-01T09:30:00Z,30.6671,-87.9365,2.532,0.44,1111122 
DISL,ioos:station:DISL:MHPA:1,2011-03-01T10:00:00Z,30.6671,-87.9365,2.424,0.4,1111122 
DISL,ioos:station:DISL:MHPA:1,2011-03-01T10:30:00Z,30.6671,-87.9365,2.32,0.42,1111122 
DISL,ioos:station:DISL:MHPA:1,2011-03-01T11:00:00Z,30.6671,-87.9365,2.224,0.4,1111122 
DISL,ioos:station:DISL:MHPA:1,2011-03-01T11:30:00Z,30.6671,-87.9365,2.135,0.41,1111122 
DISL,ioos:station:DISL:MHPA:1,2011-03-01T12:00:00Z,30.6671,-87.9365,2.056,0.42,1111122 
DISL,ioos:station:DISL:MHPA:1,2011-03-01T12:30:00Z,30.6671,-87.9365,1.963,0.42,1111122 
DISL,ioos:station:DISL:MHPA:1,2011-03-01T13:00:00Z,30.6671,-87.9365,1.88,0.43,1111122 
DISL,ioos:station:DISL:MHPA:1,2011-03-01T13:30:00Z,30.6671,-87.9365,1.805,0.46,1111122 
DISL,ioos:station:DISL:MHPA:1,2011-03-01T14:00:00Z,30.6671,-87.9365,1.72,0.48,1111122 
DISL,ioos:station:DISL:MHPA:1,2011-03-01T14:30:00Z,30.6671,-87.9365,1.64,0.49,1111122 
DISL,ioos:station:DISL:MHPA:1,2011-03-01T15:00:00Z,30.6671,-87.9365,1.58,0.48,1111122 
DISL,ioos:station:DISL:MHPA:1,2011-03-01T15:30:00Z,30.6671,-87.9365,1.545,0.48,1111122 
DISL,ioos:station:DISL:MHPA:1,2011-03-01T16:00:00Z,30.6671,-87.9365,1.529,0.47,1111122 
DISL,ioos:station:DISL:MHPA:1,2011-03-01T16:30:00Z,30.6671,-87.9365,1.508,0.48,1111122 
DISL,ioos:station:DISL:MHPA:1,2011-03-01T17:00:00Z,30.6671,-87.9365,1.521,0.49,1111122 
DISL,ioos:station:DISL:MHPA:1,2011-03-01T17:30:00Z,30.6671,-87.9365,1.627,0.49,1111122 
DISL,ioos:station:DISL:MHPA:1,2011-03-01T18:00:00Z,30.6671,-87.9365,1.821,0.49,1111122 
DISL,ioos:station:DISL:MHPA:1,2011-03-01T18:30:00Z,30.6671,-87.9365,2.013,0.5,1111122 
DISL,ioos:station:DISL:MHPA:1,2011-03-01T19:00:00Z,30.6671,-87.9365,2.134,0.51,1111122 
DISL,ioos:station:DISL:MHPA:1,2011-03-01T19:30:00Z,30.6671,-87.9365,2.282,0.5,1111122 
DISL,ioos:station:DISL:MHPA:1,2011-03-01T20:00:00Z,30.6671,-87.9365,2.427,0.49,1111122 
DISL,ioos:station:DISL:MHPA:1,2011-03-01T20:30:00Z,30.6671,-87.9365,2.561,0.49,1111122 
DISL,ioos:station:DISL:MHPA:1,2011-03-01T21:00:00Z,30.6671,-87.9365,2.71,0.48,1111122 
DISL,ioos:station:DISL:MHPA:1,2011-03-01T21:30:00Z,30.6671,-87.9365,2.87,0.49,1111122 
DISL,ioos:station:DISL:MHPA:1,2011-03-01T22:00:00Z,30.6671,-87.9365,2.984,0.49,1111122 
DISL,ioos:station:DISL:MHPA:1,2011-03-01T22:30:00Z,30.6671,-87.9365,3.107,0.5,1111122 
DISL,ioos:station:DISL:MHPA:1,2011-03-01T23:00:00Z,30.6671,-87.9365,3.247,0.49,1111122 
DISL,ioos:station:DISL:MHPA:1,2011-03-01T23:30:00Z,30.6671,-87.9365,3.365,0.49,1111122 
DISL,ioos:station:DISL:MHPA:1,2011-03-02T00:00:00Z,30.6671,-87.9365,3.504,0.39,1111122 
DISL,ioos:station:DISL:MHPA:1,2011-03-02T00:30:00Z,30.6671,-87.9365,3.635,0.37,1111122 
DISL,ioos:station:DISL:MHPA:1,2011-03-02T01:00:00Z,30.6671,-87.9365,3.782,0.38,1111122 
DISL,ioos:station:DISL:MHPA:1,2011-03-02T01:30:00Z,30.6671,-87.9365,3.903,0.34,1111122 
DISL,ioos:station:DISL:MHPA:1,2011-03-02T02:00:00Z,30.6671,-87.9365,3.994,0.29,1111122 
DISL,ioos:station:DISL:MHPA:1,2011-03-02T02:30:00Z,30.6671,-87.9365,4.041,0.33,1111122 
DISL,ioos:station:DISL:MHPA:1,2011-03-02T03:00:00Z,30.6671,-87.9365,4.104,0.33,1111122 
DISL,ioos:station:DISL:MHPA:1,2011-03-02T03:30:00Z,30.6671,-87.9365,4.125,0.33,1111122 
DISL,ioos:station:DISL:MHPA:1,2011-03-02T04:00:00Z,30.6671,-87.9365,4.12,0.36,1111122 
DISL,ioos:station:DISL:MHPA:1,2011-03-02T04:30:00Z,30.6671,-87.9365,4.094,0.36,1111122 
DISL,ioos:station:DISL:MHPA:1,2011-03-02T05:00:00Z,30.6671,-87.9365,4.089,0.37,1111122 
DISL,ioos:station:DISL:MHPA:1,2011-03-02T05:30:00Z,30.6671,-87.9365,4.029,0.36,1111122 
DISL,ioos:station:DISL:MHPA:1,2011-03-02T06:00:00Z,30.6671,-87.9365,3.963,0.37,1111122 
DISL,ioos:station:DISL:MHPA:1,2011-03-02T06:30:00Z,30.6671,-87.9365,3.853,0.38,1111122 
DISL,ioos:station:DISL:MHPA:1,2011-03-02T07:00:00Z,30.6671,-87.9365,3.746,0.38,1111122 
DISL,ioos:station:DISL:MHPA:1,2011-03-02T07:30:00Z,30.6671,-87.9365,3.591,0.39,1111122 
DISL,ioos:station:DISL:MHPA:1,2011-03-02T08:00:00Z,30.6671,-87.9365,3.466,0.38,1111122 
DISL,ioos:station:DISL:MHPA:1,2011-03-02T08:30:00Z,30.6671,-87.9365,3.333,0.38,1111122 
DISL,ioos:station:DISL:MHPA:1,2011-03-02T09:00:00Z,30.6671,-87.9365,3.193,0.38,1111122 
DISL,ioos:station:DISL:MHPA:1,2011-03-02T09:30:00Z,30.6671,-87.9365,3.068,0.37,1111122 
DISL,ioos:station:DISL:MHPA:1,2011-03-02T10:00:00Z,30.6671,-87.9365,2.973,0.37,1111122 
DISL,ioos:station:DISL:MHPA:1,2011-03-02T10:30:00Z,30.6671,-87.9365,2.904,0.37,1111122 
DISL,ioos:station:DISL:MHPA:1,2011-03-02T11:00:00Z,30.6671,-87.9365,2.821,0.39,1111122 
DISL,ioos:station:DISL:MHPA:1,2011-03-02T11:30:00Z,30.6671,-87.9365,2.723,0.37,1111122 
DISL,ioos:station:DISL:MHPA:1,2011-03-02T12:00:00Z,30.6671,-87.9365,2.645,0.37,1111122 
DISL,ioos:station:DISL:MHPA:1,2011-03-02T12:30:00Z,30.6671,-87.9365,2.601,0.38,1111122 
DISL,ioos:station:DISL:MHPA:1,2011-03-02T13:00:00Z,30.6671,-87.9365,2.592,0.42,1111122 
DISL,ioos:station:DISL:MHPA:1,2011-03-02T13:30:00Z,30.6671,-87.9365,2.599,0.41,1111122 
DISL,ioos:station:DISL:MHPA:1,2011-03-02T14:00:00Z,30.6671,-87.9365,2.575,0.42,1111122 
DISL,ioos:station:DISL:MHPA:1,2011-03-02T14:30:00Z,30.6671,-87.9365,2.549,0.42,1111122 
DISL,ioos:station:DISL:MHPA:1,2011-03-02T15:00:00Z,30.6671,-87.9365,2.572,0.43,1111122 
DISL,ioos:station:DISL:MHPA:1,2011-03-02T15:30:00Z,30.6671,-87.9365,2.629,0.44,1111122 
DISL,ioos:station:DISL:MHPA:1,2011-03-02T16:00:00Z,30.6671,-87.9365,2.711,0.4,1111122 
DISL,ioos:station:DISL:MHPA:1,2011-03-02T16:30:00Z,30.6671,-87.9365,2.786,0.4,1111122 
DISL,ioos:station:DISL:MHPA:1,2011-03-02T17:00:00Z,30.6671,-87.9365,2.895,0.37,1111122 
DISL,ioos:station:DISL:MHPA:1,2011-03-02T17:30:00Z,30.6671,-87.9365,2.95,0.39,1111122 
DISL,ioos:station:DISL:MHPA:1,2011-03-02T18:00:00Z,30.6671,-87.9365,3.043,0.39,1111122 
DISL,ioos:station:DISL:MHPA:1,2011-03-02T18:30:00Z,30.6671,-87.9365,3.071,0.4,1111122 
DISL,ioos:station:DISL:MHPA:1,2011-03-02T19:00:00Z,30.6671,-87.9365,3.141,0.41,1111122 
DISL,ioos:station:DISL:MHPA:1,2011-03-02T19:30:00Z,30.6671,-87.9365,3.212,0.41,1111122 
DISL,ioos:station:DISL:MHPA:1,2011-03-02T20:00:00Z,30.6671,-87.9365,3.245,0.42,1111122 
DISL,ioos:station:DISL:MHPA:1,2011-03-02T20:30:00Z,30.6671,-87.9365,3.301,0.41,1111122 
DISL,ioos:station:DISL:MHPA:1,2011-03-02T21:00:00Z,30.6671,-87.9365,3.394,0.42,1111122 
DISL,ioos:station:DISL:MHPA:1,2011-03-02T21:30:00Z,30.6671,-87.9365,3.371,0.41,1111122 
DISL,ioos:station:DISL:MHPA:1,2011-03-02T22:00:00Z,30.6671,-87.9365,3.351,0.36,1111122 
DISL,ioos:station:DISL:MHPA:1,2011-03-02T22:30:00Z,30.6671,-87.9365,3.3,0.37,1111122 
DISL,ioos:station:DISL:MHPA:1,2011-03-02T23:00:00Z,30.6671,-87.9365,3.323,0.37,1111122 
DISL,ioos:station:DISL:MHPA:1,2011-03-02T23:30:00Z,30.6671,-87.9365,3.345,0.38,1111122 
DISL,ioos:station:DISL:MHPA:1,2011-03-03T00:00:00Z,30.6671,-87.9365,3.333,0.37,1111122 
DISL,ioos:station:DISL:MHPA:1,2011-03-03T00:30:00Z,30.6671,-87.9365,3.416,0.38,1111122 
DISL,ioos:station:DISL:MHPA:1,2011-03-03T01:00:00Z,30.6671,-87.9365,3.508,0.38,1111122 
DISL,ioos:station:DISL:MHPA:1,2011-03-03T01:30:00Z,30.6671,-87.9365,3.576,0.38,1111122 
DISL,ioos:station:DISL:MHPA:1,2011-03-03T02:00:00Z,30.6671,-87.9365,3.563,0.38,1111122 
DISL,ioos:station:DISL:MHPA:1,2011-03-03T02:30:00Z,30.6671,-87.9365,3.661,0.38,1111122 
DISL,ioos:station:DISL:MHPA:1,2011-03-03T03:00:00Z,30.6671,-87.9365,3.702,0.38,1111122 
DISL,ioos:station:DISL:MHPA:1,2011-03-03T03:30:00Z,30.6671,-87.9365,3.74,0.38,1111122 
DISL,ioos:station:DISL:MHPA:1,2011-03-03T04:00:00Z,30.6671,-87.9365,3.747,0.39,1111122 
DISL,ioos:station:DISL:MHPA:1,2011-03-03T04:30:00Z,30.6671,-87.9365,3.784,0.39,1111122 
DISL,ioos:station:DISL:MHPA:1,2011-03-03T05:00:00Z,30.6671,-87.9365,3.78,0.38,1111122 
DISL,ioos:station:DISL:MHPA:1,2011-03-03T05:30:00Z,30.6671,-87.9365,3.726,0.38,1111122 
DISL,ioos:station:DISL:MHPA:1,2011-03-03T06:00:00Z,30.6671,-87.9365,3.731,0.38,1111122 
DISL,ioos:station:DISL:MHPA:1,2011-03-03T06:30:00Z,30.6671,-87.9365,3.761,0.38,1111122 
DISL,ioos:station:DISL:MHPA:1,2011-03-03T07:00:00Z,30.6671,-87.9365,3.719,0.38,1111122 
DISL,ioos:station:DISL:MHPA:1,2011-03-03T07:30:00Z,30.6671,-87.9365,3.677,0.38,1111122 
DISL,ioos:station:DISL:MHPA:1,2011-03-03T08:00:00Z,30.6671,-87.9365,3.63,0.38,1111122 
DISL,ioos:station:DISL:MHPA:1,2011-03-03T08:30:00Z,30.6671,-87.9365,3.495,0.38,1111122 
DISL,ioos:station:DISL:MHPA:1,2011-03-03T09:00:00Z,30.6671,-87.9365,3.427,0.38,1111122 
DISL,ioos:station:DISL:MHPA:1,2011-03-03T09:30:00Z,30.6671,-87.9365,3.298,0.38,1111122 
DISL,ioos:station:DISL:MHPA:1,2011-03-03T10:00:00Z,30.6671,-87.9365,3.102,0.37,1111122 
DISL,ioos:station:DISL:MHPA:1,2011-03-03T10:30:00Z,30.6671,-87.9365,2.992,0.34,1111122 
DISL,ioos:station:DISL:MHPA:1,2011-03-03T11:00:00Z,30.6671,-87.9365,2.984,0.34,1111122 
DISL,ioos:station:DISL:MHPA:1,2011-03-03T11:30:00Z,30.6671,-87.9365,2.935,0.34,1111122 
DISL,ioos:station:DISL:MHPA:1,2011-03-03T12:00:00Z,30.6671,-87.9365,2.87,0.34,1111122 
DISL,ioos:station:DISL:MHPA:1,2011-03-03T12:30:00Z,30.6671,-87.9365,2.814,0.36,1111122 
DISL,ioos:station:DISL:MHPA:1,2011-03-03T13:00:00Z,30.6671,-87.9365,2.818,0.36,1111122 
DISL,ioos:station:DISL:MHPA:1,2011-03-03T13:30:00Z,30.6671,-87.9365,2.902,0.36,1111122 
DISL,ioos:station:DISL:MHPA:1,2011-03-03T14:00:00Z,30.6671,-87.9365,2.956,0.36,1111122 
DISL,ioos:station:DISL:MHPA:1,2011-03-03T14:30:00Z,30.6671,-87.9365,3.003,0.36,1111122 
DISL,ioos:station:DISL:MHPA:1,2011-03-03T15:00:00Z,30.6671,-87.9365,3.116,0.34,1111122 
DISL,ioos:station:DISL:MHPA:1,2011-03-03T15:30:00Z,30.6671,-87.9365,3.196,0.34,1111122 
DISL,ioos:station:DISL:MHPA:1,2011-03-03T16:00:00Z,30.6671,-87.9365,3.318,0.34,1111122 
DISL,ioos:station:DISL:MHPA:1,2011-03-03T16:30:00Z,30.6671,-87.9365,3.57,0.31,1111122 
DISL,ioos:station:DISL:MHPA:1,2011-03-03T17:00:00Z,30.6671,-87.9365,3.809,0.31,1111122 
DISL,ioos:station:DISL:MHPA:1,2011-03-03T17:30:00Z,30.6671,-87.9365,3.928,0.26,1111122 
DISL,ioos:station:DISL:MHPA:1,2011-03-03T18:00:00Z,30.6671,-87.9365,3.944,0.25,1111122 
DISL,ioos:station:DISL:MHPA:1,2011-03-03T18:30:00Z,30.6671,-87.9365,3.979,0.25,1111122 
DISL,ioos:station:DISL:MHPA:1,2011-03-03T19:00:00Z,30.6671,-87.9365,3.984,0.2,1111122 
DISL,ioos:station:DISL:MHPA:1,2011-03-03T19:30:00Z,30.6671,-87.9365,3.977,0.18,1111122 
DISL,ioos:station:DISL:MHPA:1,2011-03-03T20:00:00Z,30.6671,-87.9365,3.901,0.22,1111122 
DISL,ioos:station:DISL:MHPA:1,2011-03-03T20:30:00Z,30.6671,-87.9365,3.899,0.23,1111122 
DISL,ioos:station:DISL:MHPA:1,2011-03-03T21:00:00Z,30.6671,-87.9365,4.06,0.28,1111122 
DISL,ioos:station:DISL:MHPA:1,2011-03-03T21:30:00Z,30.6671,-87.9365,4.055,0.25,1111122 
DISL,ioos:station:DISL:MHPA:1,2011-03-03T22:00:00Z,30.6671,-87.9365,4.067,0.26,1111122 
DISL,ioos:station:DISL:MHPA:1,2011-03-03T22:30:00Z,30.6671,-87.9365,4.127,0.25,1111122 
DISL,ioos:station:DISL:MHPA:1,2011-03-03T23:00:00Z,30.6671,-87.9365,4.087,0.27,1111122 
DISL,ioos:station:DISL:MHPA:1,2011-03-03T23:30:00Z,30.6671,-87.9365,4.018,0.29,1111122 
DISL,ioos:station:DISL:MHPA:1,2011-03-04T00:00:00Z,30.6671,-87.9365,3.978,0.28,1111122 
DISL,ioos:station:DISL:MHPA:1,2011-03-04T00:30:00Z,30.6671,-87.9365,3.931,0.27,1111122 
DISL,ioos:station:DISL:MHPA:1,2011-03-04T01:00:00Z,30.6671,-87.9365,3.94,0.27,1111122 
DISL,ioos:station:DISL:MHPA:1,2011-03-04T01:30:00Z,30.6671,-87.9365,3.999,0.27,1111122 
DISL,ioos:station:DISL:MHPA:1,2011-03-04T02:00:00Z,30.6671,-87.9365,3.98,0.27,1111122 
DISL,ioos:station:DISL:MHPA:1,2011-03-04T02:30:00Z,30.6671,-87.9365,4.064,0.27,1111122 
DISL,ioos:station:DISL:MHPA:1,2011-03-04T03:00:00Z,30.6671,-87.9365,4.134,0.28,1111122 
DISL,ioos:station:DISL:MHPA:1,2011-03-04T03:30:00Z,30.6671,-87.9365,4.116,0.28,1111122 
DISL,ioos:station:DISL:MHPA:1,2011-03-04T04:00:00Z,30.6671,-87.9365,4.108,0.28,1111122 
DISL,ioos:station:DISL:MHPA:1,2011-03-04T04:30:00Z,30.6671,-87.9365,4.099,0.28,1111122 
DISL,ioos:station:DISL:MHPA:1,2011-03-04T05:00:00Z,30.6671,-87.9365,4.041,0.28,1111122 
DISL,ioos:station:DISL:MHPA:1,2011-03-04T05:30:00Z,30.6671,-87.9365,4.02,0.28,1111122 
DISL,ioos:station:DISL:MHPA:1,2011-03-04T06:00:00Z,30.6671,-87.9365,4.029,0.27,1111122 
DISL,ioos:station:DISL:MHPA:1,2011-03-04T06:30:00Z,30.6671,-87.9365,4.027,0.27,1111122 
DISL,ioos:station:DISL:MHPA:1,2011-03-04T07:00:00Z,30.6671,-87.9365,3.966,0.27,1111122 
DISL,ioos:station:DISL:MHPA:1,2011-03-04T07:30:00Z,30.6671,-87.9365,3.881,0.27,1111122 
DISL,ioos:station:DISL:MHPA:1,2011-03-04T08:00:00Z,30.6671,-87.9365,3.834,0.27,1111122 
DISL,ioos:station:DISL:MHPA:1,2011-03-04T08:30:00Z,30.6671,-87.9365,3.799,0.27,1111122 
DISL,ioos:station:DISL:MHPA:1,2011-03-04T09:00:00Z,30.6671,-87.9365,3.756,0.27,1111122 
DISL,ioos:station:DISL:MHPA:1,2011-03-04T09:30:00Z,30.6671,-87.9365,3.765,0.28,1111122 
DISL,ioos:station:DISL:MHPA:1,2011-03-04T10:00:00Z,30.6671,-87.9365,3.828,0.27,1111122 
DISL,ioos:station:DISL:MHPA:1,2011-03-04T10:30:00Z,30.6671,-87.9365,3.801,0.27,1111122 
DISL,ioos:station:DISL:MHPA:1,2011-03-04T11:00:00Z,30.6671,-87.9365,3.685,0.27,1111122 
DISL,ioos:station:DISL:MHPA:1,2011-03-04T11:30:00Z,30.6671,-87.9365,3.612,0.27,1111122 
DISL,ioos:station:DISL:MHPA:1,2011-03-04T12:00:00Z,30.6671,-87.9365,3.562,0.27,1111122 
DISL,ioos:station:DISL:MHPA:1,2011-03-04T12:30:00Z,30.6671,-87.9365,3.496,0.26,1111122 
DISL,ioos:station:DISL:MHPA:1,2011-03-04T13:00:00Z,30.6671,-87.9365,3.417,0.26,1111122 
DISL,ioos:station:DISL:MHPA:1,2011-03-04T13:30:00Z,30.6671,-87.9365,3.417,0.27,1111122 
DISL,ioos:station:DISL:MHPA:1,2011-03-04T14:00:00Z,30.6671,-87.9365,3.46,0.27,1111122 
DISL,ioos:station:DISL:MHPA:1,2011-03-04T14:30:00Z,30.6671,-87.9365,3.539,0.27,1111122 
DISL,ioos:station:DISL:MHPA:1,2011-03-04T15:00:00Z,30.6671,-87.9365,3.683,0.27,1111122 
DISL,ioos:station:DISL:MHPA:1,2011-03-04T15:30:00Z,30.6671,-87.9365,3.74,0.26,1111122 
DISL,ioos:station:DISL:MHPA:1,2011-03-04T16:00:00Z,30.6671,-87.9365,3.705,0.25,1111122 
DISL,ioos:station:DISL:MHPA:1,2011-03-04T16:30:00Z,30.6671,-87.9365,3.793,0.24,1111122 
DISL,ioos:station:DISL:MHPA:1,2011-03-04T17:00:00Z,30.6671,-87.9365,3.867,0.24,1111122 
DISL,ioos:station:DISL:MHPA:1,2011-03-04T17:30:00Z,30.6671,-87.9365,3.946,0.22,1111122 
DISL,ioos:station:DISL:MHPA:1,2011-03-04T18:00:00Z,30.6671,-87.9365,4.016,0.23,1111122 
DISL,ioos:station:DISL:MHPA:1,2011-03-04T18:30:00Z,30.6671,-87.9365,4.082,0.24,1111122 
DISL,ioos:station:DISL:MHPA:1,2011-03-04T19:00:00Z,30.6671,-87.9365,4.137,0.23,1111122 
DISL,ioos:station:DISL:MHPA:1,2011-03-04T19:30:00Z,30.6671,-87.9365,4.168,0.25,1111122 
DISL,ioos:station:DISL:MHPA:1,2011-03-04T20:00:00Z,30.6671,-87.9365,4.233,0.24,1111122 
DISL,ioos:station:DISL:MHPA:1,2011-03-04T20:30:00Z,30.6671,-87.9365,4.296,0.25,1111122 
DISL,ioos:station:DISL:MHPA:1,2011-03-04T21:00:00Z,30.6671,-87.9365,4.377,0.23,1111122 
DISL,ioos:station:DISL:MHPA:1,2011-03-04T21:30:00Z,30.6671,-87.9365,4.381,0.23,1111122 
DISL,ioos:station:DISL:MHPA:1,2011-03-04T22:00:00Z,30.6671,-87.9365,4.393,0.22,1111122 
DISL,ioos:station:DISL:MHPA:1,2011-03-04T22:30:00Z,30.6671,-87.9365,4.444,0.22,1111122 
DISL,ioos:station:DISL:MHPA:1,2011-03-04T23:00:00Z,30.6671,-87.9365,4.367,0.22,1111122 
DISL,ioos:station:DISL:MHPA:1,2011-03-04T23:30:00Z,30.6671,-87.9365,4.304,0.2,1111122 
DISL,ioos:station:DISL:MHPA:1,2011-03-05T00:00:00Z,30.6671,-87.9365,4.283,0.22,1111122 
DISL,ioos:station:DISL:MHPA:1,2011-03-05T00:30:00Z,30.6671,-87.9365,4.287,0.23,1111122 
DISL,ioos:station:DISL:MHPA:1,2011-03-05T01:00:00Z,30.6671,-87.9365,4.387,0.22,1111122 
DISL,ioos:station:DISL:MHPA:1,2011-03-05T01:30:00Z,30.6671,-87.9365,4.34,0.23,1111122 
DISL,ioos:station:DISL:MHPA:1,2011-03-05T02:00:00Z,30.6671,-87.9365,4.384,0.24,1111122 
DISL,ioos:station:DISL:MHPA:1,2011-03-05T02:30:00Z,30.6671,-87.9365,4.542,0.25,1111122 
DISL,ioos:station:DISL:MHPA:1,2011-03-05T03:00:00Z,30.6671,-87.9365,4.631,0.25,1111122 
DISL,ioos:station:DISL:MHPA:1,2011-03-05T03:30:00Z,30.6671,-87.9365,4.619,0.24,1111122 
DISL,ioos:station:DISL:MHPA:1,2011-03-05T04:00:00Z,30.6671,-87.9365,4.596,0.24,1111122 
DISL,ioos:station:DISL:MHPA:1,2011-03-05T04:30:00Z,30.6671,-87.9365,4.594,0.23,1111122 
DISL,ioos:station:DISL:MHPA:1,2011-03-05T05:00:00Z,30.6671,-87.9365,4.61,0.24,1111122 
DISL,ioos:station:DISL:MHPA:1,2011-03-05T05:30:00Z,30.6671,-87.9365,4.744,0.23,1111122 
DISL,ioos:station:DISL:MHPA:1,2011-03-05T06:00:00Z,30.6671,-87.9365,4.83,0.24,1111122 
DISL,ioos:station:DISL:MHPA:1,2011-03-05T06:30:00Z,30.6671,-87.9365,4.714,0.24,1111122 
DISL,ioos:station:DISL:MHPA:1,2011-03-05T07:00:00Z,30.6671,-87.9365,4.586,0.24,1111122 
DISL,ioos:station:DISL:MHPA:1,2011-03-05T07:30:00Z,30.6671,-87.9365,4.555,0.24,1111122 
DISL,ioos:station:DISL:MHPA:1,2011-03-05T08:00:00Z,30.6671,-87.9365,4.563,0.24,1111122 
DISL,ioos:station:DISL:MHPA:1,2011-03-05T08:30:00Z,30.6671,-87.9365,4.578,0.24,1111122 
DISL,ioos:station:DISL:MHPA:1,2011-03-05T09:00:00Z,30.6671,-87.9365,4.824,0.24,1111122 
DISL,ioos:station:DISL:MHPA:1,2011-03-05T09:30:00Z,30.6671,-87.9365,4.741,0.24,1111122 
DISL,ioos:station:DISL:MHPA:1,2011-03-05T10:00:00Z,30.6671,-87.9365,4.465,0.24,1111122 
DISL,ioos:station:DISL:MHPA:1,2011-03-05T10:30:00Z,30.6671,-87.9365,4.445,0.24,1111122 
DISL,ioos:station:DISL:MHPA:1,2011-03-05T11:00:00Z,30.6671,-87.9365,4.338,0.24,1111122 
DISL,ioos:station:DISL:MHPA:1,2011-03-05T11:30:00Z,30.6671,-87.9365,4.176,0.24,1111122 
DISL,ioos:station:DISL:MHPA:1,2011-03-05T12:00:00Z,30.6671,-87.9365,4.057,0.24,1111122 
DISL,ioos:station:DISL:MHPA:1,2011-03-05T12:30:00Z,30.6671,-87.9365,4.051,0.24,1111122 
DISL,ioos:station:DISL:MHPA:1,2011-03-05T13:00:00Z,30.6671,-87.9365,4.153,0.24,1111122 
DISL,ioos:station:DISL:MHPA:1,2011-03-05T13:30:00Z,30.6671,-87.9365,4.347,0.24,1111122 
DISL,ioos:station:DISL:MHPA:1,2011-03-05T14:00:00Z,30.6671,-87.9365,4.377,0.24,1111122 
DISL,ioos:station:DISL:MHPA:1,2011-03-05T14:30:00Z,30.6671,-87.9365,4.447,0.25,1111122 
DISL,ioos:station:DISL:MHPA:1,2011-03-05T15:00:00Z,30.6671,-87.9365,4.496,0.25,1111122 
DISL,ioos:station:DISL:MHPA:1,2011-03-05T15:30:00Z,30.6671,-87.9365,4.432,0.25,1111122 
DISL,ioos:station:DISL:MHPA:1,2011-03-05T16:00:00Z,30.6671,-87.9365,4.496,0.26,1111122 
DISL,ioos:station:DISL:MHPA:1,2011-03-05T16:30:00Z,30.6671,-87.9365,4.415,0.27,1111122 
DISL,ioos:station:DISL:MHPA:1,2011-03-05T17:00:00Z,30.6671,-87.9365,4.415,0.26,1111122 
DISL,ioos:station:DISL:MHPA:1,2011-03-05T17:30:00Z,30.6671,-87.9365,4.556,0.26,1111122 
DISL,ioos:station:DISL:MHPA:1,2011-03-05T18:00:00Z,30.6671,-87.9365,4.654,0.27,1111122 
DISL,ioos:station:DISL:MHPA:1,2011-03-05T18:30:00Z,30.6671,-87.9365,4.744,0.26,1111122 
DISL,ioos:station:DISL:MHPA:1,2011-03-05T19:00:00Z,30.6671,-87.9365,4.77,0.26,1111122 
DISL,ioos:station:DISL:MHPA:1,2011-03-05T19:30:00Z,30.6671,-87.9365,4.834,0.26,1111122 
DISL,ioos:station:DISL:MHPA:1,2011-03-05T20:00:00Z,30.6671,-87.9365,4.83,0.26,1111122 
DISL,ioos:station:DISL:MHPA:1,2011-03-05T20:30:00Z,30.6671,-87.9365,4.819,0.26,1111122 
DISL,ioos:station:DISL:MHPA:1,2011-03-05T21:00:00Z,30.6671,-87.9365,4.709,0.26,1111122 
DISL,ioos:station:DISL:MHPA:1,2011-03-05T21:30:00Z,30.6671,-87.9365,4.604,0.26,1111122 
DISL,ioos:station:DISL:MHPA:1,2011-03-05T22:00:00Z,30.6671,-87.9365,4.77,0.26,1111122 
DISL,ioos:station:DISL:MHPA:1,2011-03-05T22:30:00Z,30.6671,-87.9365,4.725,0.27,1111122 
DISL,ioos:station:DISL:MHPA:1,2011-03-05T23:00:00Z,30.6671,-87.9365,4.629,0.26,1111122 
DISL,ioos:station:DISL:MHPA:1,2011-03-05T23:30:00Z,30.6671,-87.9365,4.9,0.26,1111122 
DISL,ioos:station:DISL:MHPA:1,2011-03-06T00:00:00Z,30.6671,-87.9365,5.792,0.26,1111122 
DISL,ioos:station:DISL:MHPA:1,2011-03-06T00:30:00Z,30.6671,-87.9365,5.202,0.27,1111122 
DISL,ioos:station:DISL:MHPA:1,2011-03-06T01:00:00Z,30.6671,-87.9365,5.049,0.26,1111122 
DISL,ioos:station:DISL:MHPA:1,2011-03-06T01:30:00Z,30.6671,-87.9365,4.971,0.27,1111122 
DISL,ioos:station:DISL:MHPA:1,2011-03-06T02:00:00Z,30.6671,-87.9365,4.453,0.26,1111122 
DISL,ioos:station:DISL:MHPA:1,2011-03-06T02:30:00Z,30.6671,-87.9365,4.378,0.26,1111122 
DISL,ioos:station:DISL:MHPA:1,2011-03-06T03:00:00Z,30.6671,-87.9365,4.486,0.27,1111122 
DISL,ioos:station:DISL:MHPA:1,2011-03-06T03:30:00Z,30.6671,-87.9365,4.375,0.27,1111122 
DISL,ioos:station:DISL:MHPA:1,2011-03-06T04:00:00Z,30.6671,-87.9365,4.351,0.27,1111122 
DISL,ioos:station:DISL:MHPA:1,2011-03-06T04:30:00Z,30.6671,-87.9365,4.118,0.27,1111122 
DISL,ioos:station:DISL:MHPA:1,2011-03-06T05:00:00Z,30.6671,-87.9365,3.983,0.28,1111122 
DISL,ioos:station:DISL:MHPA:1,2011-03-06T05:30:00Z,30.6671,-87.9365,3.871,0.28,1111122 
DISL,ioos:station:DISL:MHPA:1,2011-03-06T06:00:00Z,30.6671,-87.9365,3.872,0.29,1111122 
DISL,ioos:station:DISL:MHPA:1,2011-03-06T06:30:00Z,30.6671,-87.9365,3.794,0.31,1111122 
DISL,ioos:station:DISL:MHPA:1,2011-03-06T07:00:00Z,30.6671,-87.9365,3.631,0.31,1111122 
DISL,ioos:station:DISL:MHPA:1,2011-03-06T07:30:00Z,30.6671,-87.9365,3.471,0.32,1111122 
DISL,ioos:station:DISL:MHPA:1,2011-03-06T08:00:00Z,30.6671,-87.9365,3.371,0.32,1111122 
DISL,ioos:station:DISL:MHPA:1,2011-03-06T08:30:00Z,30.6671,-87.9365,3.297,0.34,1111122 
DISL,ioos:station:DISL:MHPA:1,2011-03-06T09:00:00Z,30.6671,-87.9365,3.258,0.36,1111122 
DISL,ioos:station:DISL:MHPA:1,2011-03-06T09:30:00Z,30.6671,-87.9365,3.082,0.4,1111122 
DISL,ioos:station:DISL:MHPA:1,2011-03-06T10:00:00Z,30.6671,-87.9365,2.941,0.4,1111122 
DISL,ioos:station:DISL:MHPA:1,2011-03-06T10:30:00Z,30.6671,-87.9365,2.755,0.41,1111122 
DISL,ioos:station:DISL:MHPA:1,2011-03-06T11:00:00Z,30.6671,-87.9365,2.615,0.37,1111122 
DISL,ioos:station:DISL:MHPA:1,2011-03-06T11:30:00Z,30.6671,-87.9365,2.586,0.36,1111122 
DISL,ioos:station:DISL:MHPA:1,2011-03-06T12:00:00Z,30.6671,-87.9365,2.565,0.35,1111122 
DISL,ioos:station:DISL:MHPA:1,2011-03-06T12:30:00Z,30.6671,-87.9365,2.528,0.35,1111122 
DISL,ioos:station:DISL:MHPA:1,2011-03-06T13:00:00Z,30.6671,-87.9365,2.408,0.37,1111122 
DISL,ioos:station:DISL:MHPA:1,2011-03-06T13:30:00Z,30.6671,-87.9365,2.233,0.38,1111122 
DISL,ioos:station:DISL:MHPA:1,2011-03-06T14:00:00Z,30.6671,-87.9365,2.113,0.37,1111122 
DISL,ioos:station:DISL:MHPA:1,2011-03-06T14:30:00Z,30.6671,-87.9365,2.031,0.37,1111122 
DISL,ioos:station:DISL:MHPA:1,2011-03-06T15:00:00Z,30.6671,-87.9365,2.009,0.37,1111122 
DISL,ioos:station:DISL:MHPA:1,2011-03-06T15:30:00Z,30.6671,-87.9365,2.111,0.37,1111122 